Volver al catálogo

CZ-2C DEB

ActivoPO
NORAD 39204·DEBRIS·🇨🇳 China

Lanzado Jul 15, 2013 desde Jiuquan Satellite Launch Center

Loading…

Próximos Pases (próximas 24 horas)

TLE

ActualizadoSource: Space-Track

Época: Sep 14, 2026, 06:26 UTC

1 39204U 13035C   26257.26837058  .00013430  00000-0  98962-3 0  9999
2 39204  98.2207 179.8067 0035596 343.0038  16.9991 15.02952392702962

Sigue CZ-2C DEB en tiempo real con AllMySat

Download on the App Store